Wetbulb
57.59 57.93 57.87 57.89 57.81 57.95 57.18 56.38 57.32 57.67 57.70 58.34 58.91 59.31 59.87 60.07 60.31 60.41 60.49 60.61 60.88 61.00 61.32 61.50 61.90 62.31 60.39 56.07 52.97 57.88 67.08 65.95 59.55 59.29 57.56 57.96 55.78 59.58 55.46 56.95 56.14 54.65 53.30 53.41 54.10 54.93 53.67
56.34 56.45 56.58 56.72 57.13 57.52 57.38 56.89 56.37 56.78 57.15 57.62 57.90 58.56 59.20 59.71 60.09 60.11 60.29 60.42 60.38 60.47 60.92 61.20 61.58 61.74 57.99 52.10 56.69 57.36 57.08 57.22 57.85 58.58 57.36 57.91 56.24 56.23 55.36 54.63 53.30 54.97 53.48 52.11 52.99 52.45 52.96
56.31 56.78 56.54 55.97 56.08 56.71 57.05 57.14 56.42 56.44 56.39 57.19 57.73 58.49 58.97 59.43 59.72 59.71 59.81 59.76 59.82 60.25 60.43 60.68 61.24 59.90 57.21 52.34 57.08 56.83 57.15 56.51 58.09 58.37 57.51 56.92 56.51 54.52 55.66 54.01 56.18 53.05 49.02 50.10 51.15 51.72 51.37
55.94 56.14 56.07 55.97 55.75 55.88 56.87 56.81 56.82 56.12 56.10 56.78 57.59 58.23 58.63 59.10 59.04 59.42 59.48 59.50 59.75 60.23 60.29 60.83 61.76 58.53 52.85 56.49 57.72 55.65 56.48 56.00 58.74 59.57 59.53 59.85 58.93 57.46 55.00 54.86 52.06 48.59 47.99 44.71 50.06 51.27 51.23
56.50 55.78 56.15 55.66 55.59 55.59 56.26 56.08 56.04 56.10 55.98 57.02 57.71 58.15 58.54 58.75 58.85 59.18 59.08 59.10 59.53 60.18 60.62 61.39 58.47 57.55 49.93 59.05 53.78 55.18 56.77 54.19 56.34 57.64 60.55 57.03 58.81 56.16 55.61 49.25 46.31 47.76 41.85 44.61 47.39 51.61 50.37
56.42 56.12 56.25 55.91 55.81 55.20 55.67 55.97 56.13 57.06 57.10 57.59 57.95 58.21 58.29 58.46 58.79 58.62 58.54 58.84 60.01 59.17 59.63 59.57 59.29 52.07 51.62 50.50 54.31 54.97 56.57 56.43 54.95 56.51 55.87 56.04 53.57 49.59 49.35 46.79 40.02 43.26 43.73 45.20 44.99 48.03 48.74
56.24 56.38 56.26 56.09 55.86 55.88 55.45 55.93 56.51 56.67 56.86 57.42 57.85 58.10 58.20 58.47 58.33 58.18 57.09 56.00 54.26 54.30 55.89 51.66 50.77 50.83 51.05 53.70 55.82 54.53 55.78 54.38 54.62 53.34 49.07 53.25 47.52 44.66 47.77 49.60 48.43 46.23 44.40 43.84 46.46 49.33 47.71
56.46 56.18 55.82 55.57 55.87 55.96 55.91 56.20 56.40 56.57 56.87 57.50 58.05 58.58 58.47 58.30 58.09 58.13 55.47 54.63 55.00 56.59 49.05 53.38 52.79 52.54 53.86 54.57 51.07 53.72 56.31 51.30 51.51 47.79 50.77 48.97 43.97 49.85 50.78 49.84 48.09 46.82 44.72 44.28 48.09 48.77 46.31
56.44 56.04 55.78 55.50 55.57 55.87 56.29 56.41 56.34 56.65 57.54 58.04 58.37 58.54 58.45 58.09 58.05 55.06 55.82 57.49 60.41 59.75 50.76 50.74 52.78 51.75 52.26 53.74 51.55 52.04 54.23 53.10 49.94 48.32 48.32 45.76 49.14 50.32 48.74 48.87 46.30 46.39 44.80 44.68 43.63 47.45 47.57
56.13 55.97 55.58 55.46 55.10 55.43 56.38 56.59 56.92 57.21 57.47 57.75 58.01 58.30 58.15 58.04 52.01 57.62 57.14 59.89 61.67 60.84 46.85 46.24 49.31 51.86 53.12 54.47 50.85 54.71 54.32 52.79 51.00 47.66 49.69 48.46 50.11 48.24 48.37 46.16 47.52 43.54 47.41 46.63 45.43 43.04 38.05
56.26 55.85 55.28 54.80 55.30 56.12 56.55 56.70 56.78 56.96 57.18 57.28 57.59 58.34 58.43 56.65 55.32 55.69 58.65 61.48 61.75 58.40 37.67 48.40 49.77 55.85 53.85 51.14 52.22 51.99 54.93 53.32 48.85 49.33 50.13 47.32 48.29 47.76 46.15 46.99 48.43 45.06 48.29 46.12 45.48 42.03 39.93
55.90 55.59 55.02 55.24 55.63 56.87 56.74 56.51 56.60 56.61 56.45 56.86 57.23 57.67 56.85 56.34 57.29 59.45 60.68 61.14 58.12 44.98 38.00 46.09 50.45 48.85 48.82 50.59 50.67 52.17 51.25 53.87 52.56 48.77 49.30 47.99 50.74 48.98 47.56 48.62 48.23 48.12 45.36 45.08 43.95 40.34 32.59
55.62 55.48 55.06 55.32 56.13 57.03 56.75 56.52 56.66 56.88 56.69 57.20 56.53 56.66 55.12 58.67 56.23 60.91 60.59 57.06 44.95 40.13 49.19 45.67 47.10 49.08 48.26 48.14 48.27 49.01 48.27 46.69 44.85 42.31 42.28 46.45 46.32 47.32 47.79 45.22 47.51 46.05 41.40 34.78 33.17 32.99 33.91
55.86 55.29 55.07 55.16 56.40 56.92 56.99 56.79 56.91 56.97 57.20 57.24 56.23 56.45 57.94 56.80 59.62 60.89 57.75 50.46 41.17 45.63 46.59 49.91 48.70 48.59 46.44 48.62 47.68 47.99 47.23 44.70 46.04 44.00 41.49 40.39 39.25 45.10 47.15 45.47 42.17 44.10 41.20 34.68 29.34 30.87 33.79
55.95 55.61 55.56 55.61 56.30 56.59 56.86 57.14 57.36 57.50 56.88 55.97 55.48 56.00 56.83 56.16 58.98 59.01 53.38 44.01 43.45 46.86 48.56 47.40 47.61 45.39 45.69 46.79 45.29 46.15 45.79 44.78 42.56 42.34 39.28 39.41 39.16 44.18 44.67 45.13 44.40 42.21 37.13 41.75 35.78 37.02 32.82
55.99 55.59 55.42 55.50 55.67 55.96 56.27 56.56 56.74 57.16 56.36 55.44 54.87 54.75 55.37 55.35 58.64 56.24 50.27 45.67 45.81 47.19 47.99 48.29 44.53 47.12 44.39 45.30 42.91 44.64 44.50 44.45 42.77 42.42 42.98 41.12 35.81 42.58 42.15 44.05 44.10 41.09 42.98 35.70 35.52 29.13 27.55
56.08 55.60 55.27 55.11 55.05 55.29 55.46 55.55 56.17 56.26 56.19 54.39 53.47 51.47 52.09 56.15 56.04 52.55 45.46 44.95 45.43 46.68 48.06 45.90 45.86 45.66 45.84 45.12 45.04 44.54 42.46 43.21 44.56 42.47 42.69 40.97 38.54 37.69 40.74 38.97 40.05 38.68 37.09 37.85 36.80 34.78 28.74
56.06 55.70 55.17 54.94 54.66 54.73 54.79 54.56 55.22 56.08 54.69 52.15 55.40 47.17 53.58 55.77 48.49 50.81 47.43 46.54 43.82 45.49 46.98 46.34 46.12 45.82 44.97 45.11 44.08 44.17 42.28 43.01 43.92 43.42 41.24 40.28 37.68 34.90 38.39 40.61 41.89 40.48 39.09 38.90 32.64 32.04 34.26
56.67 56.12 55.20 54.65 54.65 54.50 54.22 53.74 53.77 55.29 52.85 55.05 52.10 50.13 53.78 53.87 44.89 45.86 46.24 44.18 45.45 44.36 45.12 44.64 44.41 44.81 45.08 44.12 41.13 42.59 42.81 43.83 43.77 42.90 39.97 40.60 36.98 32.37 33.43 37.42 39.65 36.67 39.46 39.27 37.49 34.72 30.63
56.54 56.75 55.59 54.62 54.82 54.99 54.27 53.73 52.39 51.15 51.32 51.31 50.30 46.03 49.09 50.76 50.82 46.05 45.65 44.50 42.20 44.30 44.27 44.11 43.18 43.91 42.73 41.54 43.16 40.93 41.53 42.16 43.44 43.34 41.42 41.26 38.21 35.73 31.70 34.61 38.25 35.61 38.75 39.09 36.17 28.86 31.07
56.66 56.69 56.00 54.90 54.73 55.02 54.33 53.23 52.51 51.82 51.34 52.19 51.47 49.44 47.09 44.73 45.79 46.10 46.75 45.46 42.59 40.29 42.92 43.70 41.64 41.78 41.93 39.81 39.97 39.31 42.26 40.66 41.26 43.62 41.91 39.69 34.78 37.44 38.24 39.22 38.94 37.47 37.12 37.30 35.20 36.05 30.96
55.83 56.47 56.26 55.36 54.82 54.71 54.25 53.17 52.46 51.99 50.28 52.15 49.16 48.57 47.65 46.27 45.37 45.03 42.55 42.64 42.26 40.39 41.54 40.65 40.35 41.96 41.77 39.73 39.78 39.55 42.05 41.23 41.06 41.83 40.64 40.56 34.86 36.74 34.05 39.20 37.06 35.03 36.93 37.04 37.04 37.26 36.63
55.07 55.44 55.84 55.36 54.95 54.81 54.72 53.66 52.86 52.17 50.65 53.89 51.35 50.99 50.07 43.80 46.03 45.06 45.24 43.76 42.85 42.55 41.77 42.58 42.85 42.36 40.72 40.65 42.07 41.90 42.12 41.91 41.27 40.99 39.48 38.56 35.50 33.27 30.20 36.74 36.40 31.90 37.49 38.10 37.46 39.00 37.84
54.72 54.64 55.04 55.40 54.75 54.49 54.68 54.35 53.35 52.55 51.67 55.58 52.21 52.59 50.30 45.26 46.59 46.04 44.73 44.70 43.13 42.71 41.61 42.07 43.56 42.46 42.45 45.17 44.22 43.15 41.83 41.68 41.15 40.53 40.98 37.89 35.71 33.73 29.78 32.42 25.20 37.61 41.06 40.46 39.16 39.02 39.37
54.52 53.99 53.71 54.74 54.73 54.15 54.07 54.02 53.43 52.87 52.07 53.31 52.45 51.77 51.80 47.25 47.79 45.14 44.49 43.67 42.25 43.13 42.31 42.16 42.20 43.80 45.40 43.19 39.51 37.36 36.58 37.40 38.32 39.86 38.63 38.57 35.75 31.49 28.19 28.27 34.79 37.58 37.66 36.98 34.69 34.76 40.84
55.31 53.93 53.10 53.30 54.30 54.08 53.95 53.92 53.55 53.03 52.08 53.27 50.93 51.61 51.40 49.27 44.95 47.79 45.08 44.95 43.04 42.59 41.17 41.32 43.09 44.86 44.41 41.65 39.45 34.23 34.22 38.03 33.97 34.77 38.25 38.18 36.62 31.72 30.30 24.52 22.95 36.05 38.29 40.61 38.91 28.53 41.27
55.86 54.34 53.15 52.51 53.42 53.75 53.72 53.47 53.44 53.39 52.40 55.18 51.64 53.16 51.95 48.53 45.71 45.98 44.76 44.00 47.18 45.76 42.38 41.73 40.75 40.43 43.01 39.22 35.83 37.14 35.59 39.13 32.66 33.59 30.15 31.38 31.18 27.94 29.15 28.54 32.48 40.21 39.58 40.30 27.24 31.19 40.51
55.16 54.27 53.31 52.85 52.64 53.26 53.27 53.26 53.22 53.34 53.24 53.41 51.05 52.35 51.70 49.98 45.75 46.61 46.76 45.36 45.12 44.73 42.86 41.92 40.85 40.57 39.04 36.25 37.88 38.19 36.27 37.12 34.66 37.29 34.68 32.85 31.48 30.41 30.27 28.17 25.32 40.66 38.15 32.90 38.08 40.37 41.01
54.63 54.40 53.83 53.21 53.07 52.94 52.50 52.79 52.52 52.69 52.94 52.85 50.63 52.33 51.46 50.05 45.68 48.09 47.05 47.18 46.07 45.37 43.84 43.94 43.34 43.24 43.95 39.91 40.85 41.70 37.20 37.12 35.69 31.26 38.68 31.75 36.21 32.91 34.53 34.32 41.61 41.78 40.19 42.76 42.44 39.70 39.35
MSLP
1016.33 1016.19 1016.06 1015.94 1015.75 1015.68 1015.58 1015.60 1015.80 1015.82 1015.79 1015.83 1015.88 1015.92 1015.96 1015.95 1015.97 1015.95 1015.85 1015.77 1015.75 1015.51 1015.38 1015.14 1015.10 1014.89 1014.28 1013.11 1011.38 1011.05 1011.13 1010.92 1010.69 1010.25 1009.81 1009.47 1008.96 1008.67 1008.52 1008.41 1008.77 1008.92 1009.92 1010.56 1011.13 1011.39 1011.61
1016.39 1016.13 1015.99 1015.90 1015.67 1015.60 1015.52 1015.51 1015.55 1015.66 1015.72 1015.74 1015.81 1015.88 1015.92 1015.92 1015.89 1015.82 1015.72 1015.69 1015.58 1015.33 1015.21 1015.02 1015.03 1014.93 1014.14 1012.19 1010.89 1010.83 1010.89 1010.75 1010.52 1010.06 1009.78 1009.53 1009.38 1009.28 1008.92 1008.91 1009.23 1009.45 1009.93 1010.71 1011.30 1011.71 1012.14
1016.39 1016.11 1015.92 1015.81 1015.65 1015.49 1015.40 1015.40 1015.43 1015.47 1015.62 1015.68 1015.76 1015.81 1015.82 1015.80 1015.75 1015.69 1015.72 1015.64 1015.29 1015.11 1014.92 1014.85 1014.98 1014.59 1012.67 1011.43 1010.84 1010.87 1010.74 1010.86 1010.71 1010.41 1010.16 1010.25 1010.07 1009.77 1009.40 1009.42 1009.82 1009.87 1010.33 1010.81 1011.19 1011.68 1012.09
1016.32 1016.10 1015.82 1015.72 1015.55 1015.38 1015.28 1015.25 1015.30 1015.38 1015.49 1015.58 1015.64 1015.67 1015.67 1015.63 1015.55 1015.67 1015.61 1015.32 1014.99 1014.80 1014.56 1014.55 1014.72 1014.21 1011.70 1011.03 1010.81 1010.75 1010.66 1010.67 1010.66 1010.61 1010.60 1010.55 1010.37 1009.94 1009.98 1010.02 1010.08 1010.05 1010.27 1010.55 1010.48 1011.21 1012.10
1016.25 1016.00 1015.75 1015.59 1015.45 1015.31 1015.15 1015.12 1015.12 1015.22 1015.35 1015.34 1015.40 1015.47 1015.48 1015.45 1015.54 1015.53 1015.31 1014.89 1014.71 1014.42 1014.25 1014.33 1014.23 1012.90 1011.20 1011.16 1010.79 1010.82 1010.77 1010.57 1010.69 1010.64 1010.74 1010.50 1010.45 1010.26 1010.43 1010.34 1010.12 1009.84 1009.84 1009.88 1010.70 1010.98 1011.73
1016.09 1015.87 1015.65 1015.46 1015.30 1015.21 1015.05 1014.95 1014.94 1014.97 1015.09 1015.16 1015.17 1015.26 1015.34 1015.44 1015.44 1015.26 1014.83 1014.73 1014.24 1014.04 1013.83 1013.53 1012.53 1011.94 1010.91 1010.60 1010.82 1010.87 1010.84 1010.81 1010.63 1010.62 1010.57 1010.65 1010.59 1010.58 1010.40 1010.31 1010.11 1009.77 1009.91 1009.69 1009.94 1010.91 1011.43
1015.92 1015.67 1015.46 1015.26 1015.10 1014.99 1014.96 1014.84 1014.79 1014.82 1014.90 1014.95 1015.00 1015.09 1015.27 1015.31 1015.18 1014.87 1014.82 1014.27 1014.09 1013.60 1012.62 1011.67 1010.81 1010.48 1010.45 1010.76 1010.92 1010.62 1010.82 1010.76 1010.74 1010.73 1010.48 1010.49 1010.65 1010.33 1010.00 1009.91 1010.08 1010.21 1010.26 1010.23 1010.20 1010.94 1011.61
1015.80 1015.52 1015.34 1015.15 1014.96 1014.78 1014.75 1014.70 1014.65 1014.67 1014.73 1014.80 1014.88 1014.91 1014.92 1014.92 1014.73 1014.89 1015.00 1012.69 1012.08 1011.93 1011.59 1011.14 1010.79 1010.55 1010.47 1010.47 1010.54 1010.69 1010.80 1010.78 1010.58 1010.39 1010.18 1010.63 1010.40 1010.31 1010.29 1010.43 1010.60 1010.67 1010.64 1010.54 1010.44 1011.13 1011.79
1015.59 1015.34 1015.13 1014.98 1014.79 1014.63 1014.52 1014.52 1014.50 1014.47 1014.48 1014.52 1014.60 1014.64 1014.66 1014.57 1014.83 1014.88 1013.21 1011.83 1011.62 1011.31 1010.77 1010.91 1010.49 1010.37 1010.73 1010.77 1010.48 1010.94 1011.08 1010.61 1010.46 1010.26 1010.17 1010.37 1010.46 1010.59 1010.72 1010.77 1010.98 1010.96 1011.09 1011.06 1011.41 1011.53 1011.54
1015.51 1015.17 1014.92 1014.79 1014.68 1014.50 1014.33 1014.27 1014.26 1014.24 1014.21 1014.28 1014.29 1014.29 1014.38 1014.75 1015.28 1012.35 1011.78 1011.58 1011.60 1011.46 1010.66 1011.06 1010.60 1010.51 1010.76 1010.72 1011.17 1011.63 1011.63 1011.54 1010.68 1010.50 1010.24 1010.50 1010.93 1010.93 1011.11 1011.21 1011.10 1011.53 1011.90 1011.98 1012.25 1012.53 1012.26
1015.51 1015.10 1014.82 1014.62 1014.42 1014.33 1014.24 1014.09 1014.03 1014.07 1014.04 1014.09 1014.16 1014.30 1014.56 1014.81 1013.80 1011.85 1011.91 1011.67 1011.53 1011.30 1010.40 1010.65 1010.56 1010.71 1010.58 1010.85 1011.44 1011.82 1011.92 1011.59 1011.29 1010.88 1011.28 1010.98 1011.03 1011.31 1011.51 1011.59 1011.74 1012.41 1012.71 1012.88 1013.04 1013.11 1013.03
1015.50 1015.10 1014.78 1014.47 1014.23 1014.04 1013.98 1013.93 1013.80 1013.80 1013.92 1013.94 1014.12 1014.34 1014.49 1014.19 1013.34 1012.13 1011.83 1011.77 1011.60 1011.26 1010.31 1010.53 1010.48 1010.58 1010.73 1010.90 1011.16 1011.64 1011.66 1011.82 1011.85 1011.67 1011.39 1011.40 1011.81 1011.96 1012.13 1012.39 1012.61 1012.93 1013.16 1013.11 1013.36 1013.50 1013.00
1015.51 1015.16 1014.83 1014.50 1014.21 1013.98 1013.82 1013.78 1013.82 1013.76 1013.82 1013.98 1014.04 1014.14 1014.32 1012.95 1012.29 1012.04 1011.90 1011.49 1011.18 1010.30 1010.14 1010.57 1010.28 1010.52 1010.54 1010.59 1011.00 1011.40 1011.48 1011.75 1012.06 1012.12 1011.50 1011.40 1011.77 1012.46 1012.86 1012.88 1013.13 1013.43 1013.58 1013.33 1013.74 1013.56 1012.29
1015.58 1015.21 1014.93 1014.64 1014.31 1014.04 1013.85 1013.74 1013.68 1013.71 1013.84 1013.94 1014.06 1014.18 1013.31 1012.65 1012.39 1012.21 1011.83 1011.30 1010.49 1009.59 1009.95 1010.41 1010.39 1010.53 1010.47 1010.50 1011.08 1011.42 1011.75 1012.08 1012.66 1012.93 1012.66 1012.03 1012.51 1012.90 1013.17 1013.21 1013.54 1013.46 1013.63 1013.74 1013.48 1012.86 1012.31
1015.73 1015.32 1014.96 1014.71 1014.47 1014.14 1013.89 1013.81 1013.77 1013.72 1013.78 1013.91 1014.17 1013.64 1012.40 1012.40 1012.43 1012.19 1011.71 1010.96 1010.69 1010.39 1010.56 1010.67 1010.86 1010.54 1010.53 1011.01 1011.60 1011.70 1011.99 1012.58 1013.70 1014.02 1014.07 1013.09 1013.46 1013.89 1013.85 1013.92 1014.19 1013.82 1014.12 1014.12 1013.93 1013.00 1012.56
1015.91 1015.52 1015.09 1014.72 1014.42 1014.22 1013.99 1013.74 1013.66 1013.76 1013.86 1014.07 1013.81 1012.43 1012.07 1012.20 1012.30 1012.12 1011.63 1010.67 1011.06 1011.58 1011.47 1011.36 1010.81 1010.68 1010.28 1010.87 1011.75 1011.95 1012.29 1014.08 1014.59 1015.20 1015.22 1014.52 1014.29 1014.14 1014.61 1014.67 1014.58 1014.62 1014.81 1014.55 1014.51 1014.06 1013.08
1016.06 1015.65 1015.36 1014.95 1014.51 1014.20 1013.97 1013.81 1013.68 1013.64 1013.84 1014.16 1013.65 1011.88 1012.05 1011.99 1012.02 1011.56 1011.07 1011.51 1012.05 1012.44 1012.31 1012.16 1011.62 1011.31 1011.18 1011.29 1011.86 1012.17 1013.28 1015.10 1015.54 1015.81 1015.84 1015.41 1014.96 1015.05 1014.96 1014.64 1014.24 1014.91 1014.72 1014.83 1014.96 1014.70 1014.08
1016.16 1015.87 1015.44 1015.14 1014.74 1014.30 1014.01 1013.85 1013.77 1013.72 1013.89 1014.29 1012.55 1011.68 1011.93 1011.89 1011.77 1010.77 1010.95 1011.85 1012.87 1012.81 1012.90 1012.69 1012.62 1012.31 1012.07 1012.18 1012.40 1012.99 1013.98 1015.57 1016.61 1016.64 1016.23 1016.52 1016.12 1015.23 1014.65 1014.66 1014.76 1014.71 1014.62 1014.58 1015.10 1015.20 1014.93
1016.25 1015.91 1015.61 1015.28 1014.91 1014.47 1014.06 1013.87 1013.88 1013.92 1014.03 1013.66 1012.03 1011.59 1011.87 1011.72 1011.01 1010.45 1011.52 1012.35 1012.83 1013.22 1013.19 1013.23 1013.02 1013.16 1013.08 1012.95 1013.42 1013.98 1015.11 1016.91 1017.36 1017.31 1017.58 1017.43 1016.60 1015.78 1015.49 1015.58 1015.32 1015.08 1014.75 1015.10 1015.45 1015.87 1015.68
1016.35 1016.05 1015.73 1015.37 1015.04 1014.66 1014.25 1013.90 1013.80 1013.94 1014.11 1014.09 1012.08 1011.34 1011.57 1011.60 1010.94 1010.79 1010.93 1011.77 1013.01 1013.84 1013.79 1013.82 1013.65 1013.80 1013.68 1013.67 1014.12 1014.66 1015.69 1017.25 1017.88 1018.00 1018.35 1018.16 1017.20 1016.47 1016.01 1015.55 1015.43 1015.28 1015.03 1015.18 1015.79 1016.08 1015.27
1016.53 1016.21 1015.88 1015.61 1015.24 1014.76 1014.50 1014.17 1013.97 1013.94 1013.99 1014.13 1012.22 1011.49 1011.76 1011.05 1010.78 1010.81 1011.13 1011.74 1012.64 1013.64 1014.11 1014.18 1014.17 1014.16 1014.02 1014.04 1014.52 1015.02 1015.76 1017.39 1018.13 1018.51 1018.55 1018.41 1017.81 1016.95 1016.27 1015.77 1015.49 1015.29 1015.20 1015.29 1015.52 1015.35 1015.58
1016.55 1016.35 1016.12 1015.75 1015.45 1015.11 1014.74 1014.41 1014.24 1014.06 1014.00 1013.95 1012.48 1011.96 1011.82 1011.44 1011.19 1011.03 1011.88 1011.94 1012.36 1013.38 1013.81 1014.10 1014.32 1014.37 1014.76 1014.88 1015.33 1015.52 1016.06 1016.65 1017.19 1018.55 1018.51 1018.55 1018.23 1017.72 1016.96 1015.80 1015.96 1015.55 1014.98 1014.99 1015.11 1015.15 1014.96
1016.68 1016.48 1016.25 1016.00 1015.67 1015.30 1014.93 1014.60 1014.31 1014.14 1014.04 1013.01 1012.72 1012.45 1012.29 1011.90 1011.46 1011.35 1011.58 1012.05 1012.64 1013.56 1014.59 1014.55 1014.64 1014.96 1015.52 1016.21 1016.33 1016.58 1016.78 1017.03 1017.38 1017.77 1018.42 1018.66 1018.85 1018.58 1017.73 1016.98 1016.42 1015.43 1014.30 1014.27 1014.46 1014.34 1014.44
1016.71 1016.62 1016.45 1016.26 1015.94 1015.58 1015.22 1014.79 1014.37 1014.11 1014.05 1013.29 1013.21 1012.75 1012.27 1011.91 1011.82 1011.78 1012.35 1012.83 1013.43 1014.06 1014.59 1015.34 1015.47 1015.80 1016.97 1017.05 1017.13 1017.10 1017.14 1017.44 1017.66 1018.14 1018.60 1018.74 1019.17 1019.31 1018.93 1018.24 1017.11 1015.12 1014.50 1014.38 1014.41 1014.81 1014.73
1016.71 1016.67 1016.60 1016.43 1016.27 1015.91 1015.50 1015.08 1014.70 1014.28 1013.84 1013.75 1014.07 1013.77 1012.83 1012.12 1012.03 1012.61 1012.97 1013.47 1014.35 1014.82 1015.23 1015.90 1016.73 1017.20 1017.31 1017.32 1017.22 1017.07 1017.29 1017.62 1017.81 1018.33 1019.06 1019.34 1019.60 1019.95 1019.75 1018.96 1017.14 1015.29 1015.53 1015.58 1015.68 1015.51 1015.29
1016.45 1016.57 1016.65 1016.58 1016.38 1016.20 1015.89 1015.46 1015.05 1014.65 1014.34 1014.20 1014.74 1014.54 1013.87 1013.25 1013.25 1012.78 1013.33 1013.86 1014.17 1014.82 1015.96 1016.89 1017.68 1017.75 1017.75 1017.41 1017.33 1017.37 1016.90 1016.50 1017.83 1018.79 1019.56 1019.82 1020.23 1020.68 1020.16 1019.88 1018.42 1016.46 1016.41 1016.36 1016.41 1016.36 1016.16
1016.18 1016.36 1016.53 1016.60 1016.53 1016.34 1016.05 1015.88 1015.53 1015.07 1014.62 1014.31 1014.87 1014.79 1014.34 1013.93 1014.43 1014.11 1014.27 1014.56 1014.47 1014.71 1015.62 1016.67 1017.58 1017.97 1018.02 1017.58 1017.60 1017.61 1017.07 1016.84 1017.25 1017.72 1019.02 1019.69 1020.23 1020.42 1020.25 1019.71 1018.10 1016.76 1016.76 1016.84 1017.07 1017.38 1016.83
1016.11 1016.43 1016.59 1016.66 1016.67 1016.47 1016.28 1016.04 1015.85 1015.54 1015.09 1014.77 1015.32 1014.96 1014.79 1014.57 1015.47 1015.31 1015.28 1015.51 1015.49 1015.56 1015.88 1016.83 1017.42 1017.61 1017.95 1017.83 1017.45 1017.33 1017.44 1017.28 1017.20 1016.82 1017.40 1018.25 1018.91 1019.26 1019.44 1019.07 1017.84 1017.07 1017.22 1017.35 1016.81 1016.55 1016.73
1015.63 1016.24 1016.81 1016.74 1016.83 1016.68 1016.55 1016.34 1015.98 1015.83 1015.54 1015.05 1015.25 1015.25 1015.13 1015.25 1016.46 1016.42 1016.80 1017.01 1016.97 1017.09 1016.85 1016.76 1016.94 1016.79 1016.77 1017.38 1017.29 1017.50 1017.89 1017.83 1017.56 1017.32 1016.96 1017.60 1017.43 1018.01 1018.00 1017.55 1016.82 1016.75 1016.80 1016.60 1016.93 1017.11 1017.07
Wind_Speed
7 8 9 8 7 6 4 4 5 4 2 1 1 3 5 6 7 8 9 9 11 9 10 9 12 12 8 6 3 5 4 4 8 5 3 4 7 2 5 3 3 4 7 4 3 2 5
7 8 8 9 9 7 5 4 4 5 6 4 4 5 6 7 8 8 9 10 10 9 10 8 11 11 5 4 0 3 3 3 7 3 4 6 6 6 5 4 4 3 4 7 5 5 4
8 8 8 8 8 9 6 6 5 6 6 7 7 8 7 8 7 8 10 10 8 10 10 9 10 7 8 3 1 3 0 2 4 6 2 6 6 5 5 3 1 3 6 5 6 6 5
7 9 8 8 8 7 7 6 6 7 8 9 10 9 8 7 6 8 10 9 9 12 9 10 7 7 1 2 4 1 2 3 1 2 3 3 7 3 5 4 3 5 8 6 11 10 6
8 8 8 8 8 7 6 6 7 7 8 9 9 9 8 7 8 10 9 8 14 13 8 9 6 7 5 3 4 2 3 2 1 1 1 3 3 4 1 4 5 7 6 10 5 9 7
9 8 8 8 8 7 7 6 7 7 8 8 8 8 7 8 9 9 8 9 8 7 6 9 10 6 4 3 5 0 3 2 2 1 2 2 3 3 4 6 6 6 4 8 1 8 5
10 9 9 9 8 7 7 7 6 7 7 8 8 8 9 9 8 5 8 5 5 4 9 4 6 6 6 7 3 3 1 2 3 3 4 3 2 7 5 4 5 7 8 8 8 6 2
11 11 9 9 8 7 7 7 6 7 8 8 9 9 8 7 4 7 6 5 5 5 4 1 2 7 5 3 4 5 3 4 4 5 5 3 6 4 3 4 4 7 9 9 2 7 2
11 11 9 7 7 7 6 6 7 7 8 8 8 8 7 1 4 4 9 6 4 7 5 3 2 5 3 4 4 7 7 2 5 7 5 7 4 3 2 1 5 7 7 7 7 2 8
11 11 9 7 6 6 5 5 6 7 6 6 6 5 2 0 1 6 3 4 3 4 5 6 6 4 5 1 4 1 3 3 2 4 5 5 5 2 2 6 7 7 8 6 6 5 4
12 11 9 6 5 5 4 4 5 5 4 4 4 4 6 13 9 2 4 2 4 3 5 8 6 2 3 3 6 3 1 3 5 5 1 1 1 2 4 2 6 4 4 4 5 7 8
12 10 7 6 5 5 3 2 3 3 2 3 4 6 5 5 6 4 3 3 3 4 2 4 5 6 7 4 5 4 3 2 1 4 7 7 3 2 5 3 3 3 5 8 4 4 4
12 10 7 6 5 4 2 2 3 4 4 5 6 7 5 7 3 3 3 3 4 4 5 6 6 5 9 6 5 3 4 5 2 3 5 9 8 5 2 3 4 4 4 2 3 3 3
12 11 8 6 5 2 0 2 4 4 6 6 7 5 7 3 4 3 4 4 4 7 7 3 2 3 5 4 3 3 3 4 1 3 4 4 4 5 4 2 5 6 2 3 5 2 2
12 11 10 7 6 4 1 3 4 6 7 6 3 4 4 3 2 3 4 5 6 7 3 3 3 5 7 4 2 3 6 4 7 6 4 6 5 4 4 4 2 3 3 3 4 8 4
11 11 11 10 8 6 3 2 3 4 6 6 4 5 3 1 2 4 4 5 4 4 2 2 3 2 4 8 3 4 6 4 4 4 4 2 2 1 4 2 4 3 5 2 2 3 4
11 12 12 11 9 7 4 2 3 4 4 4 4 3 2 3 4 5 5 5 5 4 4 3 4 1 1 2 3 2 6 2 1 3 3 3 3 3 1 7 2 3 3 4 1 2 3
11 12 13 13 11 8 4 2 3 5 7 2 5 2 2 2 4 5 3 4 1 3 1 1 2 3 3 4 2 1 3 6 4 4 2 4 4 4 3 5 5 3 5 3 2 4 3
11 12 13 14 15 12 7 2 2 5 5 5 3 3 3 3 4 5 4 4 3 2 2 1 2 2 2 1 1 2 4 3 3 3 5 5 3 4 2 2 2 3 4 5 5 3 6
10 12 14 15 15 14 11 6 4 3 1 3 3 3 3 4 3 6 6 5 4 3 2 2 3 1 1 3 2 2 5 3 1 3 2 3 4 4 3 3 2 4 3 4 4 2 5
9 11 13 15 16 16 14 11 5 4 4 1 3 2 2 3 5 3 2 4 6 3 2 2 3 5 2 2 3 3 4 5 3 4 2 2 4 5 8 9 9 9 10 11 12 13 8
7 10 13 14 15 16 15 14 11 5 2 3 3 2 2 2 1 5 3 4 6 4 4 5 3 4 1 3 6 4 1 3 4 5 3 3 3 4 5 6 3 7 14 13 12 12 13
5 8 10 13 15 16 14 14 12 11 2 4 2 2 2 2 3 4 2 6 4 9 2 6 2 3 3 6 6 6 4 3 4 1 6 4 2 3 5 2 8 8 4 1 3 4 4
2 5 7 10 12 14 15 15 14 12 7 3 4 3 3 3 2 3 5 4 6 3 4 4 1 3 3 2 2 2 2 0 3 4 4 2 2 2 4 6 3 2 4 4 1 4 7
3 3 4 7 9 11 13 15 15 13 15 4 3 3 2 0 4 5 7 7 8 4 6 7 5 4 2 2 3 3 4 3 4 2 2 2 3 2 1 3 9 10 5 5 5 5 7
7 4 2 4 7 9 11 12 14 13 12 3 3 2 3 3 4 4 6 8 5 4 4 4 3 2 1 3 1 1 3 2 4 5 0 0 4 2 2 2 5 5 4 2 1 2 9
9 8 4 2 4 7 9 12 15 14 13 3 3 4 2 3 4 6 3 2 2 2 4 5 5 3 2 2 2 3 3 2 4 5 6 3 3 5 5 5 6 4 6 0 2 5 8
8 7 5 4 2 5 7 10 13 14 13 5 2 4 3 3 4 6 5 3 1 2 2 4 4 2 3 2 1 3 1 0 3 3 6 6 5 4 4 3 6 6 3 2 4 6 6
12 9 5 5 2 3 5 8 12 14 14 8 3 2 2 4 3 4 7 6 6 6 3 3 4 3 3 3 2 2 1 1 2 3 3 2 5 2 3 5 1 6 6 6 7 4 4
Wind_Direction
340 325 320 325 322 320 309 244 225 228 208 201 230 268 272 276 280 283 284 284 280 290 297 315 312 316 307 220 79 114 282 299 256 286 344 328 282 307 245 91 264 101 129 100 108 180 61
315 311 313 311 312 309 308 281 253 234 233 243 282 283 279 281 281 284 286 282 282 297 296 312 306 316 246 221 56 59 355 3 354 324 13 347 8 351 320 27 331 84 122 132 158 142 130
317 313 306 298 293 298 299 275 247 265 247 244 262 270 271 278 282 290 283 277 291 291 289 299 298 287 267 50 73 358 260 68 343 353 60 15 334 289 4 151 129 159 163 181 180 166 175
313 307 305 299 292 285 284 281 253 238 241 238 246 255 260 275 289 282 275 281 295 280 285 283 283 260 33 106 350 170 195 136 126 76 39 354 334 360 314 90 222 227 221 205 180 176 133
316 308 307 300 292 284 277 261 245 239 236 241 243 249 257 272 272 269 274 302 284 276 267 275 261 219 114 163 185 86 359 27 37 134 22 353 299 334 148 236 239 199 244 229 168 190 147
316 311 307 300 295 279 269 258 245 247 236 247 247 249 257 260 263 271 310 292 291 287 233 245 262 249 175 134 101 343 105 339 323 346 233 237 227 242 209 237 244 329 259 311 235 189 214
320 314 308 301 290 278 264 251 250 242 242 244 245 243 241 250 260 324 319 223 172 189 222 322 134 85 115 97 176 124 39 216 225 223 253 186 264 222 253 243 7 330 305 297 297 112 179
320 314 312 301 294 278 264 254 246 240 235 237 239 237 238 243 318 318 277 252 47 358 133 110 98 67 76 331 146 113 288 251 186 247 174 182 230 36 41 25 339 300 284 282 124 131 168
326 320 313 303 292 283 268 256 242 236 240 235 232 229 227 310 332 271 245 3 349 336 205 139 58 125 115 263 34 70 330 37 264 267 234 251 46 94 326 245 276 259 261 298 337 21 229
331 329 320 310 293 278 274 258 249 237 234 235 227 219 224 122 295 206 216 57 302 312 204 136 187 117 166 240 135 360 1 335 239 299 357 276 68 335 286 279 286 289 17 11 323 321 278
343 336 327 318 305 293 279 251 235 237 223 216 237 227 217 219 315 209 46 306 312 248 199 159 121 76 103 227 134 127 322 228 286 338 182 56 127 196 262 333 23 57 359 323 311 291 301
350 347 342 330 325 321 297 247 231 222 223 206 208 213 214 207 231 41 335 305 259 237 127 128 122 176 179 186 141 135 200 210 346 286 230 271 77 323 12 74 2 46 279 243 247 246 254
358 358 351 344 337 330 295 193 202 190 194 203 195 200 196 304 17 352 294 236 219 268 171 133 166 177 219 159 178 218 195 197 278 278 185 198 201 112 278 253 165 219 277 276 229 191 255
3 5 4 356 347 350 160 195 181 174 175 179 194 202 226 313 329 308 234 236 266 93 69 63 153 178 205 158 194 175 242 224 133 267 293 269 181 172 122 299 357 200 328 307 303 9 358
7 11 14 12 3 2 95 156 174 172 173 186 155 214 225 103 305 282 256 229 17 33 38 137 168 219 185 167 303 212 216 27 46 18 299 348 104 86 18 13 349 114 208 3 299 263 267
8 15 18 19 18 5 357 143 162 189 202 184 265 209 130 131 232 245 254 260 98 58 10 281 266 242 322 140 187 188 145 5 89 16 340 41 278 318 114 255 203 276 338 256 225 270 283
8 13 20 22 21 15 355 308 185 185 187 132 263 222 104 193 228 236 245 60 102 63 4 337 349 315 283 18 274 266 69 91 22 111 297 320 256 136 124 199 137 163 226 215 294 258 271
16 18 18 18 21 21 10 314 233 190 146 136 270 229 118 230 216 225 298 40 284 101 84 80 313 327 329 45 252 269 65 56 16 347 323 56 332 286 64 59 28 328 318 335 190 308 300
16 18 23 24 16 22 31 49 236 231 212 309 261 105 165 244 254 194 129 91 49 137 151 163 148 335 46 279 264 354 85 57 39 336 14 3 230 300 129 136 152 258 229 232 313 91 222
27 23 22 23 22 21 26 39 96 97 149 283 288 176 141 211 277 304 136 165 135 34 81 343 52 317 224 202 96 82 131 112 71 19 10 332 289 281 275 353 189 277 249 224 237 233 267
29 31 32 28 24 25 30 32 54 77 63 300 250 50 13 188 215 231 10 92 146 151 279 232 171 257 243 212 173 195 94 139 179 134 234 272 278 328 315 308 285 272 272 267 252 245 253
41 32 29 33 31 28 27 32 34 29 83 254 306 283 182 24 324 176 115 195 178 109 163 163 272 125 180 342 30 34 126 213 110 157 248 114 288 359 287 255 349 278 264 265 270 272 269
50 37 34 31 28 27 28 27 24 24 332 254 106 151 294 123 215 240 89 95 119 128 44 20 43 155 201 71 24 34 27 28 6 138 200 191 230 3 265 339 331 282 288 4 345 297 283
94 60 37 31 30 26 26 26 21 13 15 315 26 302 249 142 245 45 108 110 130 69 120 122 336 305 90 123 146 227 133 53 245 120 341 268 202 226 266 309 240 79 43 360 277 280 277
152 99 60 40 31 27 24 24 23 13 2 64 8 323 326 229 91 126 147 121 113 113 94 119 56 54 146 221 243 203 172 195 189 81 268 248 314 286 217 242 304 297 41 23 31 301 360
181 163 105 46 41 30 23 21 19 11 7 104 62 290 303 319 52 39 146 173 152 157 155 101 99 40 258 264 224 216 246 29 164 152 213 289 293 282 240 223 247 39 127 11 296 274 18
187 181 173 126 62 43 35 23 18 10 5 18 70 10 277 94 37 348 93 209 1 83 74 126 155 171 309 216 222 208 249 57 216 202 169 180 186 208 230 247 258 302 92 351 327 275 343
190 184 186 169 122 60 46 34 20 12 11 5 86 13 348 60 61 7 12 36 20 296 185 112 132 193 161 254 244 209 210 33 335 281 167 169 173 197 197 226 269 115 99 269 264 318 314
171 163 171 159 148 111 55 41 32 15 5 347 83 21 318 55 83 47 75 53 36 17 332 160 6 133 218 221 198 28 20 222 271 264 66 238 213 223 188 207 308 195 222 293 33 6 331